Location: Unspecified
(0.0000°N, 0.0000°E)
Time: 06:48:14
(UTC+00:00)

deb Explorer IX - Visible Passes

Search period start: 08 February 2023 00:00
Search period end: 18 February 2023 00:00
Orbit: 534 x 1047 km, 38.8° (Epoch: 07 February)

Date Brightness Start Highest point End Pass type
(mag) Time Alt. Az. Time Alt. Az. Time Alt. Az.
08 Feb ? 20:25:32 10° SSW 20:29:38 26° SSE 20:29:38 26° SSE visible
09 Feb ? 19:52:35 10° SSW 19:58:17 26° SE 19:58:36 26° SE visible
09 Feb ? 21:38:11 10° WSW 21:39:14 15° WSW 21:39:14 15° WSW visible
10 Feb ? 19:19:38 10° SSW 19:25:02 23° SE 19:27:34 19° ESE visible
10 Feb ? 21:04:50 10° SW 21:08:12 30° WSW 21:08:12 30° WSW visible
11 Feb ? 18:46:42 10° S 18:51:43 21° SE 18:56:34 10° E visible
11 Feb ? 20:31:29 10° SW 20:37:13 62° WSW 20:37:13 62° WSW visible
12 Feb ? 19:58:06 10° SW 20:05:10 86° SE 20:06:14 66° ENE visible
13 Feb ? 19:24:44 10° SW 19:31:45 76° SE 19:35:16 31° ENE visible
13 Feb ? 21:13:09 10° W 21:15:55 18° WNW 21:15:55 18° WNW visible
14 Feb ? 18:51:21 10° SW 18:58:15 66° SE 19:04:17 14° ENE visible
14 Feb ? 20:39:14 10° W 20:44:51 26° NW 20:44:56 26° NW visible
15 Feb ? 05:46:18 10° N 05:48:29 14° NE 05:50:38 10° ENE visible
15 Feb ? 20:05:21 10° W 20:11:19 30° NW 20:13:55 23° N visible
16 Feb ? 05:13:38 10° NNE 05:15:11 12° NE 05:16:40 10° ENE visible
16 Feb ? 19:31:30 10° WSW 19:37:43 34° NW 19:42:52 14° NNE visible
17 Feb ? 18:57:40 10° WSW 19:04:02 39° NW 19:10:27 10° NNE visible
